Flag for Switzerland Weather past 2 weeks in La-Chaux-de-Fonds, Neuchâtel, Switzerland

Now
45 °F

Light rain. Mostly cloudy.


Feels Like: 38 °F
Forecast: 30 / 34 °F
Wind: 15 mph from Southwest

Location: Les Eplatures

Current Time: Mar 31, 2015 at 3:27:59 PM

Latest Report: Mar 31, 2015 at 2:50 PM


Visibility: 6 mi

Pressure: 29.95 "Hg

Humidity: 93%

Dew point: 43 °F

Location of La-Chaux-de-FondsLocation

Historic Weather in La-Chaux-de-Fonds — Graph

°F

La-Chaux-de-Fonds temperature yesterday

Maximum temperature yesterday: 45 °F (at 11:20 AM)
Minimum temperature yesterday: 41 °F (at 7:20 PM)
Average temperature yesterday: 43 °F

Past Weeks' High & Low Weather Summary

 TemperatureHumidityPressure
High57 °F (Mar 17, 2:50 PM)100% (Mar 25, 10:20 AM)30.24 "Hg (Mar 25, 10:20 AM)
Low25 °F (Mar 28, 2:50 AM)29% (Mar 17, 3:20 PM)29.62 "Hg (Mar 25, 3:20 AM)
Average39 °F81%29.99 "Hg
* Reported Mar 16 1:20 PM — Mar 31 2:20 PM, La-Chaux-de-Fonds, Weather by CustomWeather, © 2015

Note: Actual official high and low records may vary slightly from our data, if they occured in-between our weather recording intervals... More about our weather records

Advertising

La-Chaux-de-Fonds weather history for previous 24 hours

 ConditionsComfort  
Time TempWeatherWind HumidityBarometerVisibility
2:20 PM
Tue, Mar 31
43 °FLight rain. Mostly cloudy.17 mph93%29.98 "Hg4 mi
1:50 PM45 °FRain. Mostly cloudy.18 mph87%29.98 "Hg3 mi
1:20 PM45 °FMostly cloudy.22 mph87%29.98 "HgN/A
12:50 PM45 °FSprinkles. Mostly cloudy.22 mph87%29.98 "Hg4 mi
12:20 PM45 °FLight rain. Partly sunny.20 mph93%29.95 "HgN/A
11:50 AM45 °FLight rain. Mostly cloudy.23 mph93%29.95 "Hg4 mi
11:20 AM45 °FLight rain. Mostly cloudy.23 mph87%29.95 "Hg5 mi
10:50 AM46 °FSprinkles. Mostly cloudy.22 mph82%29.95 "HgN/A
10:20 AM46 °FPartly sunny.21 mph82%29.95 "HgN/A
9:50 AM46 °FPartly sunny.20 mph82%29.92 "HgN/A
9:20 AM46 °FBroken clouds.21 mph82%29.95 "HgN/A
8:50 AM45 °FPassing clouds.22 mph87%29.95 "HgN/A
8:20 AM46 °FPassing clouds.23 mph87%29.95 "HgN/A
7:50 AM46 °FSprinkles. Passing clouds.24 mph87%29.92 "HgN/A
7:20 AM46 °FPassing clouds.23 mph87%29.92 "HgN/A
6:50 AM46 °FPassing clouds.21 mph87%29.92 "HgN/A
6:20 AM46 °FPassing clouds.22 mph93%29.92 "HgN/A
5:50 AM46 °FSprinkles. Low clouds.22 mph93%29.92 "Hg3 mi
5:20 AM46 °FLow clouds.20 mph93%29.95 "HgN/A
4:50 AM45 °FDrizzle. Low clouds.13 mph100%29.95 "HgN/A
4:20 AM45 °FPassing clouds.14 mph93%29.95 "HgN/A
3:50 AM45 °FLow clouds.12 mph93%29.95 "HgN/A
3:20 AM45 °FPassing clouds.15 mph93%29.98 "HgN/A
2:50 AM45 °FDrizzle. Low clouds.16 mph93%29.98 "HgN/A
2:20 AM45 °FPassing clouds.13 mph93%30.01 "HgN/A
1:20 AM43 °FPassing clouds.13 mph93%30.01 "HgN/A
12:50 AM43 °FLight rain. Low clouds.13 mph93%30.04 "HgN/A
12:20 AM41 °FLight rain. Low clouds.10 mph100%30.04 "HgN/A
11:50 PM
Mon, Mar 30
41 °FLight rain. Passing clouds.10 mph93%30.04 "HgN/A
11:20 PM41 °FLight rain. Passing clouds.12 mph93%30.04 "HgN/A
10:50 PM41 °FLight rain. Partly cloudy.10 mph93%30.04 "HgN/A
10:20 PM41 °FLight rain. Passing clouds.10 mph93%30.04 "HgN/A
9:50 PM41 °FLight rain. Broken clouds.10 mph93%30.04 "HgN/A
9:20 PM41 °FLight rain. Broken clouds.10 mph93%30.04 "HgN/A
8:50 PM41 °FLight rain. Partly sunny.10 mph93%30.04 "HgN/A
8:20 PM41 °FLight rain. Low clouds.10 mph93%30.01 "HgN/A
7:50 PM41 °FSprinkles. Partly sunny.12 mph93%30.01 "HgN/A
7:20 PM41 °FSprinkles. Partly sunny.10 mph93%30.01 "HgN/A
6:50 PM43 °FSprinkles. Low clouds.12 mph87%29.98 "HgN/A
6:20 PM43 °FPartly sunny.10 mph87%29.98 "HgN/A
5:50 PM43 °FMostly cloudy.9 mph87%29.98 "Hg5 mi
5:20 PM43 °FMore clouds than sun.10 mph87%29.95 "Hg5 mi
4:50 PM43 °FRain showers. More clouds than sun.13 mph87%29.95 "Hg3 mi
4:20 PM43 °FMore clouds than sun.12 mph93%29.95 "Hg3 mi
3:50 PM43 °FRain. More clouds than sun.10 mph93%29.92 "Hg3 mi
3:20 PM43 °FRain. More clouds than sun.10 mph93%29.92 "Hg3 mi
Weather by CustomWeather, © 2015

See weather overviewHow to use our weather pages